Weather in Podles'ye

Belarus     53°04′51″N   26°21′14″E
temp.,
°C
wind,
m/s
gust,
m/s
humid.,
%
clouds,
%
prec.,
mm/h
press.,
hPa
HPBL,
m
15 april, thu
thu1500:00+7ese3597100 0.5 1014260
03:00+7ese2398100 1.0 1014108
06:00+7e2297100 0.1 101569
09:00+7ne1395100 0.2 1015164
12:00+9nne4589100 0.1 1015544
15:00+9n578498 0.1 1015603
18:00+5n5894100 1.8 1015331
21:00+5n5995100 2.9 1014407
16 april, fri
fri1600:00+5n51096100 0.3 1012484
03:00+5nne51197100 5.3 1011499
06:00+6nne4998100 0.1 1011312
09:00+8ne489053 0.2 1011362
12:00+12ene576796 0.4 10121220
15:00+13e5868100 2.4 10121312
18:00+12e697358 1.6 10131085
21:00+7ene489120 2.1 1015184
17 april, sat
sat1700:00+6ene359441 0.1 1016110
03:00+6ene359451 0.1 1016134
06:00+5e379738 0.0 1018149
09:00+6e3687100 0.0 1019311
12:00+8e4579100 0.0 1021462
15:00+12e3563100 0.3 10201311
18:00+12e2467100 0.8 1020697
21:00+9sw0080100 0.9 102010
18 april, sun
sun1800:00+8ne2591100 0.1 1020167
03:00+8n2497100 1.9 1020122
06:00+9ne5995100 2.3 1019534
09:00+8ene51091100 2.4 1019495
12:00+11e687799 0.1 1020967
15:00+12ene5975100 0.1 10201037
18:00+12e4978100 0.2 1020620
21:00+9e4108847 0.3 1022358
19 april, mon
mon1900:00+9e41086100 0.1 1022348
03:00+8ene3690100 0.2 1022161
06:00+6ene410935 0.1 1023269
09:00+9e6127112 0.1 1023667
12:00+12e8115875 0.0 10221797
15:00+11e6962100 0.1 10221604
18:00+11ese686636 0.0 10211181
21:00+9ene51168100 0.1 1021578